Disclaimer

Please do not use the information listed here in-flight or in-navigation, as they are not provided to us by the airports but are provided by volunteers, so they might be outdated.

Search


Regions


Airport information page

Radio informations:
Tower (TWR) - 118.6 MHz
Approach (APP) - 119.6 MHz

Airport informations:
Latitude: 26° 45' 38.14" N
Longitude: 080° 53' 21.62" E
Elevation: 410 feet - 125 meters
Operating hours: 24 hour operations
Operating agency: Civil government, landing fees and diplomatic clearance may be required
Timezone: UTC+5:30
Fuel: Jet A1+, Jet A1 with icing inhibitor.

100/130 MIL Spec, low lead, aviation gasoline (BLUE)

Runway information:
09/27 - 8996 x 148 feet< - >2742 x 45 meters

Recent METARs:
VILK 171000Z 32005KT 2500 HZ NSC 21/06 Q1014 NOSIG
VILK 171030Z 32005KT 2500 HZ NSC 21/05 Q1014 NOSIG
VILK 171100Z 29005KT 2500 HZ NSC 20/06 Q1014 NOSIG

Airport on the map: